Zurück zum Katalog

COSMOS 449

AktivMilitärLEO
NORAD 5552·PAYLOAD·🇷🇺 Russia

Gestartet Oct 13, 1971 von Plesetsk Cosmodrome

Loading…

Nächste Überflüge (nächste 24 Stunden)

TLE

AktuellSource: Space-Track

Epoche: Sep 14, 2026, 09:11 UTC

1 05552U 71086F   26257.38277807 -.00000027  00000-0 -87232-4 0  9990
2 05552  74.0268  58.6750 0037457 206.3059 162.4946 12.38734786483532

Verfolge COSMOS 449 in Echtzeit mit AllMySat

Download on the App Store